When you browse on this site, cookies collect data to enhance your experience and personalize the content and advertising you see.
Visit our Privacy Policy to learn more. By continuing to use the site, you agree to this use of cookies and data.
  • In Schweiz
  • Länderverzeichnis
  • Für 7 Tage
  • Wassertemperatur
  • Wetterkarte
  • Widgets
  • user-avatar
    Anmelden

    Stündliche Wetter La-Plata

    Heute, 25 Mai, Montag

    Zeit Temperatur Niederschläge Wind Luftdruck Luftfeuchtigkeit
    00:00 +15°C° 0 mm 8 m/S 753 mmHg 41%
    01:00 +15°C° 0 mm 8 m/S 753 mmHg 43%
    02:00 +14°C° 0 mm 7 m/S 753 mmHg 42%
    03:00 +13°C° 0 mm 8 m/S 754 mmHg 51%
    04:00 +12°C° 0 mm 8 m/S 754 mmHg 59%
    05:00 +11°C° 0 mm 8 m/S 754 mmHg 67%
    06:00 +12°C° 0 mm 9 m/S 755 mmHg 68%
    07:00 +12°C° 0 mm 9 m/S 756 mmHg 68%
    08:00 +12°C° 0 mm 9 m/S 756 mmHg 67%
    09:00 +13°C° 0 mm 9 m/S 757 mmHg 66%
    10:00 +15°C° 0 mm 9 m/S 757 mmHg 64%
    11:00 +16°C° 0 mm 9 m/S 758 mmHg 63%
    12:00 +16°C° 0 mm 8 m/S 758 mmHg 62%
    13:00 +16°C° 0 mm 8 m/S 758 mmHg 60%
    14:00 +17°C° 0 mm 8 m/S 758 mmHg 59%
    15:00 +16°C° 0 mm 7 m/S 759 mmHg 62%
    16:00 +15°C° 0 mm 6 m/S 759 mmHg 65%
    17:00 +14°C° 0 mm 5 m/S 759 mmHg 69%
    18:00 +13°C° 0 mm 5 m/S 760 mmHg 71%
    19:00 +12°C° 0 mm 5 m/S 760 mmHg 74%
    20:00 +12°C° 0 mm 4 m/S 761 mmHg 77%
    21:00 +11°C° 0 mm 4 m/S 761 mmHg 80%
    22:00 +11°C° 0 mm 4 m/S 761 mmHg 84%
    23:00 +10°C° 0 mm 4 m/S 761 mmHg 87%

    Morgen, 26 Mai, Dienstag

    Zeit Temperatur Niederschläge Wind Luftdruck Luftfeuchtigkeit
    00:00 +10°C° 0 mm 4 m/S 761 mmHg 88%
    01:00 +8°C° 0 mm 4 m/S 761 mmHg 89%
    02:00 +8°C° 0 mm 4 m/S 761 mmHg 91%
    03:00 +9°C° 0 mm 3 m/S 761 mmHg 91%
    04:00 +8°C° 0 mm 3 m/S 761 mmHg 91%
    05:00 +8°C° 0 mm 3 m/S 761 mmHg 91%
    06:00 +8°C° 0 mm 3 m/S 762 mmHg 90%
    07:00 +9°C° 0 mm 3 m/S 762 mmHg 89%
    08:00 +9°C° 0 mm 3 m/S 762 mmHg 87%
    09:00 +11°C° 0 mm 3 m/S 762 mmHg 78%
    10:00 +13°C° 0 mm 3 m/S 762 mmHg 70%
    11:00 +14°C° 0 mm 3 m/S 762 mmHg 61%
    12:00 +16°C° 0 mm 2 m/S 761 mmHg 57%
    13:00 +17°C° 0 mm 2 m/S 761 mmHg 53%
    14:00 +18°C° 0 mm 2 m/S 760 mmHg 49%
    15:00 +16°C° 0 mm 2 m/S 760 mmHg 55%
    16:00 +15°C° 0 mm 2 m/S 760 mmHg 61%
    17:00 +14°C° 0 mm 1 m/S 760 mmHg 66%
    18:00 +13°C° 0 mm 1 m/S 761 mmHg 68%
    19:00 +13°C° 0 mm 1 m/S 761 mmHg 70%
    20:00 +12°C° 0 mm 1 m/S 761 mmHg 72%
    21:00 +12°C° 0 mm 1 m/S 761 mmHg 73%
    22:00 +12°C° 0 mm 2 m/S 761 mmHg 73%
    23:00 +12°C° 0 mm 2 m/S 761 mmHg 74%

    übermorgen, 27 Mai, Mittwoch

    Zeit Temperatur Niederschläge Wind Luftdruck Luftfeuchtigkeit
    00:00 +12°C° 0 mm 2 m/S 761 mmHg 77%
    01:00 +12°C° 0 mm 2 m/S 761 mmHg 80%
    02:00 +12°C° 0 mm 2 m/S 761 mmHg 82%
    03:00 +12°C° 0 mm 2 m/S 761 mmHg 83%
    04:00 +10°C° 0 mm 3 m/S 761 mmHg 84%
    05:00 +10°C° 0 mm 3 m/S 761 mmHg 84%
    06:00 +11°C° 0 mm 3 m/S 761 mmHg 84%
    07:00 +11°C° 0 mm 3 m/S 761 mmHg 84%
    08:00 +12°C° 0 mm 3 m/S 761 mmHg 84%
    09:00 +13°C° 0 mm 3 m/S 761 mmHg 77%
    10:00 +16°C° 0 mm 3 m/S 762 mmHg 70%
    11:00 +18°C° 0 mm 4 m/S 762 mmHg 62%
    12:00 +18°C° 0 mm 4 m/S 761 mmHg 60%
    13:00 +18°C° 0 mm 4 m/S 761 mmHg 58%
    14:00 +19°C° 0 mm 4 m/S 760 mmHg 55%
    15:00 +18°C° 0 mm 4 m/S 760 mmHg 61%
    16:00 +16°C° 0 mm 3 m/S 760 mmHg 66%
    17:00 +14°C° 0 mm 3 m/S 760 mmHg 71%
    18:00 +14°C° 0 mm 4 m/S 760 mmHg 74%
    19:00 +14°C° 0 mm 4 m/S 760 mmHg 76%
    20:00 +14°C° 0 mm 4 m/S 760 mmHg 78%
    21:00 +14°C° 0 mm 4 m/S 760 mmHg 79%
    22:00 +14°C° 0 mm 5 m/S 760 mmHg 80%
    23:00 +14°C° 0 mm 5 m/S 760 mmHg 81%

    28 Mai, Donnerstag

    Zeit Temperatur Niederschläge Wind Luftdruck Luftfeuchtigkeit
    00:00 +14°C° 0 mm 5 m/S 760 mmHg 82%
    01:00 +13°C° 0 mm 5 m/S 760 mmHg 82%
    02:00 +13°C° 0 mm 5 m/S 759 mmHg 83%
    03:00 +13°C° 0 mm 5 m/S 759 mmHg 84%
    04:00 +13°C° 0 mm 5 m/S 759 mmHg 85%
    05:00 +13°C° 0 mm 5 m/S 759 mmHg 86%
    06:00 +13°C° 0 mm 5 m/S 759 mmHg 84%
    07:00 +13°C° 0 mm 5 m/S 759 mmHg 83%
    08:00 +14°C° 0 mm 4 m/S 759 mmHg 81%
    09:00 +15°C° 0 mm 5 m/S 759 mmHg 74%
    10:00 +16°C° 0 mm 5 m/S 759 mmHg 67%
    11:00 +19°C° 0 mm 5 m/S 758 mmHg 60%
    12:00 +19°C° 0 mm 5 m/S 758 mmHg 58%
    13:00 +20°C° 0 mm 5 m/S 757 mmHg 56%
    14:00 +20°C° 0 mm 4 m/S 756 mmHg 54%
    15:00 +19°C° 0 mm 4 m/S 756 mmHg 59%
    16:00 +18°C° 0 mm 4 m/S 756 mmHg 65%
    17:00 +17°C° 0 mm 4 m/S 756 mmHg 70%
    18:00 +17°C° 0 mm 4 m/S 756 mmHg 73%
    19:00 +17°C° 0 mm 4 m/S 756 mmHg 76%
    20:00 +15°C° 0 mm 4 m/S 756 mmHg 79%
    21:00 +16°C° 0 mm 5 m/S 756 mmHg 78%
    22:00 +16°C° 0 mm 5 m/S 756 mmHg 76%
    23:00 +16°C° 0 mm 6 m/S 755 mmHg 75%

    29 Mai, Freitag

    Zeit Temperatur Niederschläge Wind Luftdruck Luftfeuchtigkeit
    00:00 +15°C° 0 mm 6 m/S 755 mmHg 78%
    01:00 +15°C° 0 mm 5 m/S 755 mmHg 81%
    02:00 +14°C° 0 mm 5 m/S 755 mmHg 84%
    03:00 +14°C° 0 mm 5 m/S 755 mmHg 85%
    04:00 +14°C° 0 mm 4 m/S 755 mmHg 86%
    05:00 +14°C° 0 mm 4 m/S 755 mmHg 88%
    06:00 +14°C° 0 mm 4 m/S 755 mmHg 87%
    07:00 +14°C° 0 mm 4 m/S 756 mmHg 87%
    08:00 +14°C° 0 mm 4 m/S 756 mmHg 86%
    09:00 +15°C° 0 mm 4 m/S 756 mmHg 81%
    10:00 +17°C° 0 mm 4 m/S 756 mmHg 75%
    11:00 +18°C° 0 mm 4 m/S 756 mmHg 69%
    12:00 +19°C° 0 mm 4 m/S 756 mmHg 63%
    13:00 +19°C° 0 mm 5 m/S 756 mmHg 57%
    14:00 +19°C° 0 mm 5 m/S 756 mmHg 50%
    15:00 +17°C° 0 mm 5 m/S 756 mmHg 45%
    16:00 +16°C° 0 mm 5 m/S 757 mmHg 39%
    17:00 +15°C° 0 mm 5 m/S 758 mmHg 33%
    18:00 +14°C° 0 mm 5 m/S 758 mmHg 33%
    19:00 +13°C° 0 mm 5 m/S 758 mmHg 32%
    20:00 +12°C° 0 mm 5 m/S 759 mmHg 31%
    21:00 +12°C° 0 mm 5 m/S 759 mmHg 30%
    22:00 +12°C° 0 mm 5 m/S 759 mmHg 29%
    23:00 +10°C° 0 mm 5 m/S 760 mmHg 28%

    30 Mai, Samstag

    Zeit Temperatur Niederschläge Wind Luftdruck Luftfeuchtigkeit
    00:00 +10°C° 0 mm 5 m/S 760 mmHg 30%
    01:00 +9°C° 0 mm 5 m/S 760 mmHg 31%
    02:00 +8°C° 0 mm 5 m/S 760 mmHg 33%
    03:00 +7°C° 0 mm 5 m/S 760 mmHg 42%
    04:00 +6°C° 0 mm 4 m/S 761 mmHg 52%
    05:00 +5°C° 0 mm 4 m/S 761 mmHg 62%
    06:00 +5°C° 0 mm 4 m/S 761 mmHg 65%
    07:00 +5°C° 0 mm 4 m/S 762 mmHg 69%
    08:00 +5°C° 0 mm 4 m/S 762 mmHg 72%
    09:00 +7°C° 0 mm 4 m/S 762 mmHg 66%
    10:00 +10°C° 0 mm 4 m/S 762 mmHg 60%
    11:00 +12°C° 0 mm 4 m/S 762 mmHg 54%
    12:00 +12°C° 0 mm 4 m/S 762 mmHg 52%
    13:00 +13°C° 0 mm 5 m/S 761 mmHg 50%
    14:00 +13°C° 0 mm 5 m/S 761 mmHg 47%
    15:00 +12°C° 0 mm 5 m/S 761 mmHg 50%
    16:00 +11°C° 0 mm 4 m/S 761 mmHg 53%
    17:00 +10°C° 0 mm 4 m/S 762 mmHg 56%
    18:00 +8°C° 0 mm 4 m/S 762 mmHg 57%
    19:00 +7°C° 0 mm 4 m/S 762 mmHg 59%
    20:00 +6°C° 0 mm 4 m/S 763 mmHg 60%
    21:00 +6°C° 0 mm 4 m/S 763 mmHg 63%
    22:00 +5°C° 0 mm 4 m/S 763 mmHg 66%
    23:00 +5°C° 0 mm 4 m/S 763 mmHg 69%
    Mehr zeigen